Starlink 30820

operational
NORAD ID: 58190 Int'l Des: 2023-167 Owner: SPXS Country: US Constellation: starlink
LEOCIRCULAR

关于 Starlink 30820

正在加载描述...

实时位置

正在加载3D地球...

即将过境

高度历史

Altitude vs Time

uPlot chart will show altitude changes over time

两行轨道根数

1 58190U 23167R 25353.99125528 .00000259 00000-0 34270-4 0 9997
2 58190 43.0017 219.2379 0001222 240.4103 119.6618 15.02536786118964
Epoch: Dec 19, 2025 • Age: 10 hours

当前状态

高度 563.0 km
速度 7.59 km/s
星下点 43.05°N, 66.49°E
发射日期 Oct 30, 2023
运行时间 2.1 years
类型 internet

技术详情

分类 Payload
质量 730.00 kg
干质量 700.00 kg
总质量 730.00 kg
长度 0.30 m
直径 4.10 m
跨度 29.00 m
形状 Box + pan
制造商 SPXS
平台类型 Starlink V2M
阶段状态 In Orbit
所有者/国家 SPXS/US

大型星座

Loading constellations...